Find Rasat

NORAD ID: 37791 Int'l Des: 2011-044 Owner: TUBTU Country: TR operational
LEOCIRCULARRETROGRADESSO

当前视图

正在加载3D地球...

About Rasat

Rasat (NORAD 37791) is a satellite launched Aug 17, 2011 by TUBTU of TR. It operates in LEO, CIRCULAR, RETROGRADE, SSO orbit with a mass of 95.00 kg.

即将过境

Passes for default location (London). Set your location on the main map for personalized predictions.

高度历史

Loading altitude history...

两行轨道根数

1 37791U 11044D 26194.63361527 .00000159 00000-0 35991-4 0 9998
2 37791 98.0585 285.6273 0021899 107.2788 22.9106 14.68191508797061
Epoch: Jul 13, 2026 • Age: 11 hours

当前状态

高度 665.6 km
远地点 / 近地点 N/A
速度 7.54 km/s
星下点 81.88°N, 123.44°W
发射日期 Aug 17, 2011
运行时间 14.9 years
类型 other

技术详情

分类 Payload
质量 95.00 kg
干质量 95.00 kg
总质量 95.00 kg
长度 0.60 m
直径 0.60 m
跨度 6.60 m
形状 Box + Ant
制造商 TUBTU
平台类型 MS-100
阶段状态 In Orbit
所有者/国家 TUBTU/TR

Most Searched